Weather History for Richmond, VA

Change the Weather History Date:

Saturday, December 7, 2013

  Actual Average Record
Temperature  
Mean Temperature 40 °F 43 °F  
Max Temperature 45 °F 53 °F 81 °F (1998)
Min Temperature 35 °F 33 °F 15 °F (1954)
Degree Days  
Heating Degree Days 25 22  
Month to date heating degree days 112 147  
Since 1 July heating degree days 752 823  
Cooling Degree Days 0 0  
Month to date cooling degree days 0 0  
Year to date cooling degree days 1678 1548  
Moisture  
Dew Point 34 °F    
Average Humidity 75    
Maximum Humidity 92    
Minimum Humidity 58    
Precipitation  
Precipitation 0.36 in 0.11 in 0.98 in (1996)
Month to date precipitation 0.47 0.79  
Year to date precipitation 48.04 41.13  
Snow  
Snow 0.00 in 0.10 in 2.80 in (1968)
Month to date snowfall 0.0 0.4  
Since 1 July snowfall T 0.6  
Snow Depth 0.00 in    
Sea Level Pressure  
Sea Level Pressure 30.35 in    
Wind  
Wind Speed 11 mph (North)    
Max Wind Speed 20 mph    
Max Gust Speed 24 mph    
Visibility 9 miles    
Events Rain    
T = Trace of Precipitation, MM = Missing Value Source: NWS Daily Summary

Daily Weather History Graph

Daily Weather History Graph

Search for Another Location

Airport:

Trip Planner

Search our weather history database for the weather conditions in past years. The results will help you decide how hot, cold, wet, or windy it might be!

Date:

Astronomy

Dec. 07, 2013 Rise Set
Actual Time 7:10 AM EST 4:50 PM EST
Civil Twilight 6:41 AM EST 5:19 PM EST
Nautical Twilight 6:09 AM EST 5:52 PM EST
Astronomical Twilight 5:37 AM EST 6:24 PM EST
Moon 10:58 AM EST (12/7) 10:25 PM EST (12/7)
Length of Visible Light 10h 38m
Length of Day
9h 40m
Waxing Crescent, 29% of the Moon is Illuminated
Dec 7
Waxing Crescent
Dec 9
First Quarter
Dec 17
Full
Dec 25
Last Quarter
Jan 1
New

Hourly Weather History & Observations

Time (EST) Temp. Windchill Dew Point Humidity Pressure Visibility Wind Dir Wind Speed Gust Speed Precip Events Conditions
12:54 AM 45.0 °F 39.3 °F 42.1 °F 90% 30.10 in 4.0 mi East 11.5 mph - 0.04 in Rain Rain
1:54 AM 44.1 °F 39.5 °F 42.1 °F 93% 30.12 in 4.0 mi North 8.1 mph - 0.13 in Rain Rain
2:54 AM 44.1 °F 37.7 °F 42.1 °F 93% 30.17 in 7.0 mi North 12.7 mph - 0.08 in Rain Rain
3:54 AM 42.1 °F 34.9 °F 39.0 °F 89% 30.19 in 10.0 mi North 13.8 mph - 0.05 in Rain Light Rain
4:54 AM 41.0 °F 33.9 °F 37.9 °F 89% 30.22 in 8.0 mi North 12.7 mph - 0.02 in Rain Light Rain
5:38 AM 39.2 °F 31.2 °F 37.4 °F 93% 30.24 in 5.0 mi North 13.8 mph - 0.03 in Rain Light Rain
5:54 AM 39.9 °F 31.8 °F 37.0 °F 89% 30.26 in 9.0 mi NNE 15.0 mph 19.6 mph 0.04 in Rain Light Rain
6:33 AM 39.2 °F 33.0 °F 37.4 °F 93% 30.25 in 10.0 mi North 9.2 mph - 0.00 in   Overcast
6:54 AM 39.9 °F 32.5 °F 37.0 °F 89% 30.28 in 10.0 mi North 12.7 mph - 0.00 in   Overcast
7:38 AM 39.2 °F 31.6 °F 35.6 °F 87% 30.31 in 10.0 mi North 12.7 mph - N/A   Overcast
7:54 AM 39.9 °F 32.5 °F 36.0 °F 86% 30.33 in 10.0 mi North 12.7 mph - N/A   Overcast
8:54 AM 41.0 °F 32.5 °F 35.1 °F 79% 30.37 in 10.0 mi North 17.3 mph 24.2 mph N/A   Overcast
9:54 AM 42.1 °F 34.9 °F 35.1 °F 76% 30.38 in 10.0 mi North 13.8 mph - N/A   Overcast
10:39 AM 44.6 °F 37.8 °F 33.8 °F 66% 30.38 in 10.0 mi North 15.0 mph - N/A   Overcast
10:54 AM 43.0 °F 37.2 °F 33.1 °F 68% 30.40 in 10.0 mi North 10.4 mph 20.7 mph N/A   Overcast
11:54 AM 44.1 °F 38.6 °F 34.0 °F 68% 30.39 in 10.0 mi NNE 10.4 mph - N/A   Overcast
12:54 PM 45.0 °F 38.9 °F 32.0 °F 60% 30.38 in 10.0 mi North 12.7 mph - N/A   Overcast
1:54 PM 45.0 °F 38.5 °F 32.0 °F 60% 30.39 in 10.0 mi North 13.8 mph - N/A   Overcast
2:54 PM 44.1 °F 36.8 °F 30.9 °F 60% 30.39 in 10.0 mi North 16.1 mph - N/A   Overcast
3:54 PM 43.0 °F 37.2 °F 30.0 °F 60% 30.41 in 10.0 mi North 10.4 mph - N/A   Overcast
4:54 PM 41.0 °F 36.4 °F 30.0 °F 65% 30.43 in 10.0 mi North 6.9 mph - N/A   Mostly Cloudy
5:54 PM 39.9 °F 35.1 °F 28.9 °F 65% 30.47 in 10.0 mi NNE 6.9 mph - N/A   Overcast
6:54 PM 39.0 °F 34.0 °F 28.9 °F 67% 30.49 in 10.0 mi North 6.9 mph - N/A   Mostly Cloudy
7:54 PM 37.0 °F 31.6 °F 27.0 °F 67% 30.52 in 10.0 mi NNE 6.9 mph - N/A   Mostly Cloudy
8:54 PM 36.0 °F 32.1 °F 27.0 °F 70% 30.53 in 10.0 mi North 4.6 mph - N/A   Mostly Cloudy
9:54 PM 36.0 °F 31.1 °F 27.0 °F 70% 30.53 in 10.0 mi North 5.8 mph - N/A   Overcast
10:54 PM 35.1 °F 31.0 °F 26.1 °F 70% 30.53 in 10.0 mi NNE 4.6 mph - N/A   Overcast
11:54 PM 35.1 °F 27.4 °F 26.1 °F 70% 30.54 in 10.0 mi North 10.4 mph - N/A   Overcast